Flag for Canada Weather past 2 weeks in Cape Dorset, Nunavut Territory, Canada

Now
41 °F

Low clouds.


Feels Like: 38 °F
Forecast: 40 / 46 °F
Wind: 5 mph from Northwest

Location: Cape Dorset

Current Time: Aug 28, 2014 at 3:27:58 AM

Latest Report: Aug 28, 2014 at 3:00 AM


Visibility: 9 mi

Pressure: 29.91 "Hg

Humidity: 93%

Dew point: 39 °F

Location of Cape DorsetLocation

Historic Weather in Cape Dorset — Graph

°F

Cape Dorset temperature yesterday

Maximum temperature yesterday: 43 °F (at 2:00 PM)
Minimum temperature yesterday: 37 °F (at 2:00 AM)
Average temperature yesterday: 39 °F

Past Weeks' High & Low Weather Summary

 TemperatureHumidityPressure
High55 °F (Aug 22, 9:00 AM)100% (Aug 13, 7:00 AM)30.30 "Hg (Aug 13, 7:00 AM)
Low36 °F (Aug 16, 12:00 AM)47% (Aug 16, 5:00 PM)29.48 "Hg (Aug 15, 9:00 AM)
Average42 °F81%29.94 "Hg
* Reported Aug 13 2:00 AM — Aug 28 2:00 AM, Cape Dorset, Weather by CustomWeather, © 2014

Note: Actual official high and low records may vary slightly from our data, if they occured in-between our weather recording intervals... More about our weather records

Advertising

Cape Dorset weather history for previous 24 hours

 ConditionsComfort  
Time TempWeatherWind HumidityBarometerVisibility
2:00 AM
Aug 28
39 °FLow clouds.3 mph93%29.91 "Hg9 mi
1:00 AM37 °FLow clouds.2 mphN/A29.92 "Hg9 mi
12:52 AM37 °FLow clouds.5 mphN/A29.91 "Hg9 mi
12:00 AM39 °FLow clouds.No windN/A29.92 "Hg9 mi
11:00 PM
Aug 27
41 °FLow clouds.12 mph100%29.92 "Hg9 mi
10:00 PM41 °FLight rain. Low clouds.12 mphN/A29.91 "Hg9 mi
9:52 PM39 °FLight rain. Low clouds.10 mphN/A29.92 "Hg7 mi
9:00 PM39 °FDense fog.14 mphN/A29.93 "Hg1 mi
8:00 PM39 °FLight rain. Low clouds.16 mphN/A29.92 "Hg1 mi
7:00 PM39 °FLow clouds.15 mph100%29.91 "Hg8 mi
6:03 PM39 °FFog.17 mph100%29.90 "Hg5 mi
5:02 PM39 °FLow clouds.12 mphN/A29.92 "Hg2 mi
4:00 PM37 °FLow clouds.12 mphN/A29.92 "Hg1 mi
3:00 PM41 °FFog.9 mph87%29.92 "Hg15 mi
2:50 PM41 °FBroken clouds.9 mph81%29.92 "Hg15 mi
2:00 PM43 °FBroken clouds.7 mph71%29.92 "Hg15 mi
1:00 PM37 °FMostly cloudy.6 mph93%29.93 "Hg15 mi
12:00 PM37 °FMostly cloudy.3 mph93%29.93 "Hg15 mi
10:00 AM37 °FOvercast.8 mph87%29.92 "Hg15 mi
9:00 AM37 °FMostly cloudy.5 mph87%29.92 "Hg15 mi
8:00 AM37 °FLight rain. Overcast.5 mph81%29.91 "Hg15 mi
7:59 AM37 °FLight rain. Overcast.5 mph81%29.91 "Hg9 mi
7:00 AM37 °FPassing clouds.2 mph81%29.90 "Hg9 mi
6:00 AM37 °FSunny.2 mph81%29.89 "Hg9 mi
5:00 AM37 °FSunny.No wind81%29.89 "Hg9 mi
4:00 AM37 °FClear.5 mph81%29.88 "Hg9 mi
3:00 AM37 °FClear.3 mph81%29.88 "Hg9 mi
Weather by CustomWeather, © 2014

See weather overviewHow to use our weather pages